site,time,unit,value
Torrington Avenue,10/11/2023 00:00:00,MW,5.988391200000001
Torrington Avenue,10/11/2023 00:05:00,MW,6.0739449
Torrington Avenue,10/11/2023 00:10:00,MW,5.9638367
Torrington Avenue,10/11/2023 00:15:00,MW,5.857985
Torrington Avenue,10/11/2023 00:20:00,MW,5.849952200000001
Torrington Avenue,10/11/2023 00:25:00,MW,5.8211656000000005
Torrington Avenue,10/11/2023 00:30:00,MW,5.7767804
Torrington Avenue,10/11/2023 00:35:00,MW,5.7137525
Torrington Avenue,10/11/2023 00:40:00,MW,5.679772
Torrington Avenue,10/11/2023 00:45:00,MW,5.6794621
Torrington Avenue,10/11/2023 00:50:00,MW,5.6473317000000005
Torrington Avenue,10/11/2023 00:55:00,MW,5.5605164
Torrington Avenue,10/11/2023 01:00:00,MW,5.6082093
Torrington Avenue,10/11/2023 01:05:00,MW,5.5697233
Torrington Avenue,10/11/2023 01:10:00,MW,5.535681
Torrington Avenue,10/11/2023 01:15:00,MW,5.5311767
Torrington Avenue,10/11/2023 01:20:00,MW,5.544551500000001
Torrington Avenue,10/11/2023 01:25:00,MW,5.6013546000000005
Torrington Avenue,10/11/2023 01:30:00,MW,5.5610028
Torrington Avenue,10/11/2023 01:35:00,MW,5.5744092
Torrington Avenue,10/11/2023 01:40:00,MW,5.5795057
Torrington Avenue,10/11/2023 01:45:00,MW,5.5622926
Torrington Avenue,10/11/2023 01:50:00,MW,5.5743648
Torrington Avenue,10/11/2023 01:55:00,MW,5.528215899999999
Torrington Avenue,10/11/2023 02:00:00,MW,5.5438605
Torrington Avenue,10/11/2023 02:05:00,MW,5.5191517
Torrington Avenue,10/11/2023 02:10:00,MW,5.473299
Torrington Avenue,10/11/2023 02:15:00,MW,5.530068399999999
Torrington Avenue,10/11/2023 02:20:00,MW,5.3985693
Torrington Avenue,10/11/2023 02:25:00,MW,5.4053237
Torrington Avenue,10/11/2023 02:30:00,MW,5.286899099999999
Torrington Avenue,10/11/2023 02:35:00,MW,5.304583
Torrington Avenue,10/11/2023 02:40:00,MW,5.320581300000001
Torrington Avenue,10/11/2023 02:45:00,MW,5.3333373
Torrington Avenue,10/11/2023 02:50:00,MW,5.2874524
Torrington Avenue,10/11/2023 02:55:00,MW,5.2986472
Torrington Avenue,10/11/2023 03:00:00,MW,5.3118792
Torrington Avenue,10/11/2023 03:05:00,MW,5.3258136
Torrington Avenue,10/11/2023 03:10:00,MW,5.2108662
Torrington Avenue,10/11/2023 03:15:00,MW,5.2146776
Torrington Avenue,10/11/2023 03:20:00,MW,5.2445672
Torrington Avenue,10/11/2023 03:25:00,MW,5.154795200000001
Torrington Avenue,10/11/2023 03:30:00,MW,5.250566
Torrington Avenue,10/11/2023 03:35:00,MW,5.2579798
Torrington Avenue,10/11/2023 03:40:00,MW,5.209313
Torrington Avenue,10/11/2023 03:45:00,MW,5.1374206000000004
Torrington Avenue,10/11/2023 03:50:00,MW,5.2282839
Torrington Avenue,10/11/2023 03:55:00,MW,5.1715031
Torrington Avenue,10/11/2023 04:00:00,MW,5.1647931
Torrington Avenue,10/11/2023 04:05:00,MW,5.063984700000001
Torrington Avenue,10/11/2023 04:10:00,MW,5.010865000000001
Torrington Avenue,10/11/2023 04:15:00,MW,5.0970021
Torrington Avenue,10/11/2023 04:20:00,MW,5.1417582
Torrington Avenue,10/11/2023 04:25:00,MW,5.0870562
Torrington Avenue,10/11/2023 04:30:00,MW,5.2154504
Torrington Avenue,10/11/2023 04:35:00,MW,5.2331638
Torrington Avenue,10/11/2023 04:40:00,MW,5.2245283
Torrington Avenue,10/11/2023 04:45:00,MW,5.2431194
Torrington Avenue,10/11/2023 04:50:00,MW,5.1268709999999995
Torrington Avenue,10/11/2023 04:55:00,MW,5.2132763
Torrington Avenue,10/11/2023 05:00:00,MW,5.3287902
Torrington Avenue,10/11/2023 05:05:00,MW,5.4147216
Torrington Avenue,10/11/2023 05:10:00,MW,5.3832965999999995
Torrington Avenue,10/11/2023 05:15:00,MW,5.4387616
Torrington Avenue,10/11/2023 05:20:00,MW,5.451244
Torrington Avenue,10/11/2023 05:25:00,MW,5.5233023
Torrington Avenue,10/11/2023 05:30:00,MW,5.6131107
Torrington Avenue,10/11/2023 05:35:00,MW,5.574157400000001
Torrington Avenue,10/11/2023 05:40:00,MW,5.6929428
Torrington Avenue,10/11/2023 05:45:00,MW,5.8603056
Torrington Avenue,10/11/2023 05:50:00,MW,5.973743
Torrington Avenue,10/11/2023 05:55:00,MW,6.0508971
Torrington Avenue,10/11/2023 06:00:00,MW,6.3577902
Torrington Avenue,10/11/2023 06:05:00,MW,6.803857300000001
Torrington Avenue,10/11/2023 06:10:00,MW,7.0720668
Torrington Avenue,10/11/2023 06:15:00,MW,7.4143446
Torrington Avenue,10/11/2023 06:20:00,MW,7.4885328
Torrington Avenue,10/11/2023 06:25:00,MW,7.6091578
Torrington Avenue,10/11/2023 06:30:00,MW,7.7202513
Torrington Avenue,10/11/2023 06:35:00,MW,7.9648631000000005
Torrington Avenue,10/11/2023 06:40:00,MW,8.180837
Torrington Avenue,10/11/2023 06:45:00,MW,8.3620266
Torrington Avenue,10/11/2023 06:50:00,MW,8.5918205
Torrington Avenue,10/11/2023 06:55:00,MW,8.6357598
Torrington Avenue,10/11/2023 07:00:00,MW,8.7888263
Torrington Avenue,10/11/2023 07:05:00,MW,8.8150348
Torrington Avenue,10/11/2023 07:10:00,MW,9.0258567
Torrington Avenue,10/11/2023 07:15:00,MW,8.952781
Torrington Avenue,10/11/2023 07:20:00,MW,9.062273000000001
Torrington Avenue,10/11/2023 07:25:00,MW,9.071307399999998
Torrington Avenue,10/11/2023 07:30:00,MW,9.2766214
Torrington Avenue,10/11/2023 07:35:00,MW,9.492128300000001
Torrington Avenue,10/11/2023 07:40:00,MW,9.519328999999999
Torrington Avenue,10/11/2023 07:45:00,MW,9.751225999999999
Torrington Avenue,10/11/2023 07:50:00,MW,9.5957847
Torrington Avenue,10/11/2023 07:55:00,MW,9.805311
Torrington Avenue,10/11/2023 08:00:00,MW,9.875149
Torrington Avenue,10/11/2023 08:05:00,MW,9.8254387
Torrington Avenue,10/11/2023 08:10:00,MW,9.834415400000001
Torrington Avenue,10/11/2023 08:15:00,MW,9.971884800000002
Torrington Avenue,10/11/2023 08:20:00,MW,9.978941599999999
Torrington Avenue,10/11/2023 08:25:00,MW,9.824856
Torrington Avenue,10/11/2023 08:30:00,MW,9.6378107
Torrington Avenue,10/11/2023 08:35:00,MW,9.723425299999999
Torrington Avenue,10/11/2023 08:40:00,MW,9.8687197
Torrington Avenue,10/11/2023 08:45:00,MW,9.845281
Torrington Avenue,10/11/2023 08:50:00,MW,9.842551700000001
Torrington Avenue,10/11/2023 08:55:00,MW,9.893670100000001
Torrington Avenue,10/11/2023 09:00:00,MW,10.0624464
Torrington Avenue,10/11/2023 09:05:00,MW,9.8629689
Torrington Avenue,10/11/2023 09:10:00,MW,10.215249
Torrington Avenue,10/11/2023 09:15:00,MW,10.1965874
Torrington Avenue,10/11/2023 09:20:00,MW,10.2144212
Torrington Avenue,10/11/2023 09:25:00,MW,10.3105387
Torrington Avenue,10/11/2023 09:30:00,MW,10.4128294
Torrington Avenue,10/11/2023 09:35:00,MW,10.252807
Torrington Avenue,10/11/2023 09:40:00,MW,10.1481462
Torrington Avenue,10/11/2023 09:45:00,MW,10.197252500000001
Torrington Avenue,10/11/2023 09:50:00,MW,10.2892637
Torrington Avenue,10/11/2023 09:55:00,MW,10.2633404
Torrington Avenue,10/11/2023 10:00:00,MW,10.0884617
Torrington Avenue,10/11/2023 10:05:00,MW,10.096879
Torrington Avenue,10/11/2023 10:10:00,MW,9.950724600000001
Torrington Avenue,10/11/2023 10:15:00,MW,10.1010723
Torrington Avenue,10/11/2023 10:20:00,MW,10.0747558
Torrington Avenue,10/11/2023 10:25:00,MW,10.1247364
Torrington Avenue,10/11/2023 10:30:00,MW,10.01497
Torrington Avenue,10/11/2023 10:35:00,MW,10.049217599999999
Torrington Avenue,10/11/2023 10:40:00,MW,10.046949300000001
Torrington Avenue,10/11/2023 10:45:00,MW,9.9439393
Torrington Avenue,10/11/2023 10:50:00,MW,9.9886093
Torrington Avenue,10/11/2023 10:55:00,MW,9.941596
Torrington Avenue,10/11/2023 11:00:00,MW,9.8014541
Torrington Avenue,10/11/2023 11:05:00,MW,9.693128999999999
Torrington Avenue,10/11/2023 11:10:00,MW,9.6485975
Torrington Avenue,10/11/2023 11:15:00,MW,9.823124700000001
Torrington Avenue,10/11/2023 11:20:00,MW,9.7981397
Torrington Avenue,10/11/2023 11:25:00,MW,9.8519602
Torrington Avenue,10/11/2023 11:30:00,MW,9.6940058
Torrington Avenue,10/11/2023 11:35:00,MW,9.841884
Torrington Avenue,10/11/2023 11:40:00,MW,9.926282
Torrington Avenue,10/11/2023 11:45:00,MW,10.127027
Torrington Avenue,10/11/2023 11:50:00,MW,9.847684000000001
Torrington Avenue,10/11/2023 11:55:00,MW,9.8728923
Torrington Avenue,10/11/2023 12:00:00,MW,10.12067
Torrington Avenue,10/11/2023 12:05:00,MW,10.2366872
Torrington Avenue,10/11/2023 12:10:00,MW,10.210488999999999
Torrington Avenue,10/11/2023 12:15:00,MW,10.0925574
Torrington Avenue,10/11/2023 12:20:00,MW,10.002926
Torrington Avenue,10/11/2023 12:25:00,MW,10.1182155
Torrington Avenue,10/11/2023 12:30:00,MW,10.0751071
Torrington Avenue,10/11/2023 12:35:00,MW,9.964118299999999
Torrington Avenue,10/11/2023 12:40:00,MW,9.886313000000001
Torrington Avenue,10/11/2023 12:45:00,MW,10.122311499999999
Torrington Avenue,10/11/2023 12:50:00,MW,9.8211942
Torrington Avenue,10/11/2023 12:55:00,MW,9.7772666
Torrington Avenue,10/11/2023 13:00:00,MW,9.8611985
Torrington Avenue,10/11/2023 13:05:00,MW,10.0048247
Torrington Avenue,10/11/2023 13:10:00,MW,9.952269999999999
Torrington Avenue,10/11/2023 13:15:00,MW,10.070867
Torrington Avenue,10/11/2023 13:20:00,MW,9.8417944
Torrington Avenue,10/11/2023 13:25:00,MW,9.8461499
Torrington Avenue,10/11/2023 13:30:00,MW,9.844773
Torrington Avenue,10/11/2023 13:35:00,MW,9.946875
Torrington Avenue,10/11/2023 13:40:00,MW,9.9066546
Torrington Avenue,10/11/2023 13:45:00,MW,10.001729000000001
Torrington Avenue,10/11/2023 13:50:00,MW,9.8180957
Torrington Avenue,10/11/2023 13:55:00,MW,9.478789500000001
Torrington Avenue,10/11/2023 14:00:00,MW,9.4113302
Torrington Avenue,10/11/2023 14:05:00,MW,9.634136999999999
Torrington Avenue,10/11/2023 14:10:00,MW,9.6712134
Torrington Avenue,10/11/2023 14:15:00,MW,9.704012599999999
Torrington Avenue,10/11/2023 14:20:00,MW,9.79838
Torrington Avenue,10/11/2023 14:25:00,MW,9.7754455
Torrington Avenue,10/11/2023 14:30:00,MW,9.674852699999999
Torrington Avenue,10/11/2023 14:35:00,MW,9.759685000000001
Torrington Avenue,10/11/2023 14:40:00,MW,9.731895999999999
Torrington Avenue,10/11/2023 14:45:00,MW,9.831584
Torrington Avenue,10/11/2023 14:50:00,MW,9.86588
Torrington Avenue,10/11/2023 14:55:00,MW,9.7160959
Torrington Avenue,10/11/2023 15:00:00,MW,9.694666999999999
Torrington Avenue,10/11/2023 15:05:00,MW,9.659396699999999
Torrington Avenue,10/11/2023 15:10:00,MW,9.57368
Torrington Avenue,10/11/2023 15:15:00,MW,9.4632443
Torrington Avenue,10/11/2023 15:20:00,MW,9.469626
Torrington Avenue,10/11/2023 15:25:00,MW,9.4878915
Torrington Avenue,10/11/2023 15:30:00,MW,9.6642954
Torrington Avenue,10/11/2023 15:35:00,MW,9.7514196
Torrington Avenue,10/11/2023 15:40:00,MW,9.5989547
Torrington Avenue,10/11/2023 15:45:00,MW,9.9042029
Torrington Avenue,10/11/2023 15:50:00,MW,9.9433432
Torrington Avenue,10/11/2023 15:55:00,MW,10.0232334
Torrington Avenue,10/11/2023 16:00:00,MW,10.0426269
Torrington Avenue,10/11/2023 16:05:00,MW,10.065697499999999
Torrington Avenue,10/11/2023 16:10:00,MW,9.90347
Torrington Avenue,10/11/2023 16:15:00,MW,9.8233094
Torrington Avenue,10/11/2023 16:20:00,MW,9.820549
Torrington Avenue,10/11/2023 16:25:00,MW,9.796128
Torrington Avenue,10/11/2023 16:30:00,MW,9.733736
Torrington Avenue,10/11/2023 16:35:00,MW,9.8230627
Torrington Avenue,10/11/2023 16:40:00,MW,9.915947599999999
Torrington Avenue,10/11/2023 16:45:00,MW,9.9842477
Torrington Avenue,10/11/2023 16:50:00,MW,9.860095300000001
Torrington Avenue,10/11/2023 16:55:00,MW,9.865459600000001
Torrington Avenue,10/11/2023 17:00:00,MW,9.785801800000002
Torrington Avenue,10/11/2023 17:05:00,MW,9.7763785
Torrington Avenue,10/11/2023 17:10:00,MW,9.7922428
Torrington Avenue,10/11/2023 17:15:00,MW,9.9096513
Torrington Avenue,10/11/2023 17:20:00,MW,9.800868000000001
Torrington Avenue,10/11/2023 17:25:00,MW,9.8565963
Torrington Avenue,10/11/2023 17:30:00,MW,9.7372403
Torrington Avenue,10/11/2023 17:35:00,MW,9.915146400000001
Torrington Avenue,10/11/2023 17:40:00,MW,9.9850068
Torrington Avenue,10/11/2023 17:45:00,MW,10.0352202
Torrington Avenue,10/11/2023 17:50:00,MW,9.948637399999999
Torrington Avenue,10/11/2023 17:55:00,MW,9.9457168
Torrington Avenue,10/11/2023 18:00:00,MW,10.0133695
Torrington Avenue,10/11/2023 18:05:00,MW,9.8450023
Torrington Avenue,10/11/2023 18:10:00,MW,9.9963603
Torrington Avenue,10/11/2023 18:15:00,MW,9.9685736
Torrington Avenue,10/11/2023 18:20:00,MW,9.912296000000001
Torrington Avenue,10/11/2023 18:25:00,MW,9.9616285
Torrington Avenue,10/11/2023 18:30:00,MW,10.153860600000002
Torrington Avenue,10/11/2023 18:35:00,MW,10.165661400000001
Torrington Avenue,10/11/2023 18:40:00,MW,10.0429907
Torrington Avenue,10/11/2023 18:45:00,MW,9.896462
Torrington Avenue,10/11/2023 18:50:00,MW,9.854016399999999
Torrington Avenue,10/11/2023 18:55:00,MW,9.9085123
Torrington Avenue,10/11/2023 19:00:00,MW,9.8334175
Torrington Avenue,10/11/2023 19:05:00,MW,9.8304987
Torrington Avenue,10/11/2023 19:10:00,MW,9.733072700000001
Torrington Avenue,10/11/2023 19:15:00,MW,9.6798985
Torrington Avenue,10/11/2023 19:20:00,MW,9.536751
Torrington Avenue,10/11/2023 19:25:00,MW,9.4832276
Torrington Avenue,10/11/2023 19:30:00,MW,9.1750861
Torrington Avenue,10/11/2023 19:35:00,MW,9.0971022
Torrington Avenue,10/11/2023 19:40:00,MW,9.197850599999999
Torrington Avenue,10/11/2023 19:45:00,MW,9.2602133
Torrington Avenue,10/11/2023 19:50:00,MW,9.202605
Torrington Avenue,10/11/2023 19:55:00,MW,9.0632537
Torrington Avenue,10/11/2023 20:00:00,MW,8.9604792
Torrington Avenue,10/11/2023 20:05:00,MW,8.7049553
Torrington Avenue,10/11/2023 20:10:00,MW,8.7262459
Torrington Avenue,10/11/2023 20:15:00,MW,8.8007213
Torrington Avenue,10/11/2023 20:20:00,MW,8.7664075
Torrington Avenue,10/11/2023 20:25:00,MW,8.697466
Torrington Avenue,10/11/2023 20:30:00,MW,8.732025
Torrington Avenue,10/11/2023 20:35:00,MW,8.6133953
Torrington Avenue,10/11/2023 20:40:00,MW,8.6380396
Torrington Avenue,10/11/2023 20:45:00,MW,8.519971
Torrington Avenue,10/11/2023 20:50:00,MW,8.444302
Torrington Avenue,10/11/2023 20:55:00,MW,8.549027299999999
Torrington Avenue,10/11/2023 21:00:00,MW,8.5295933
Torrington Avenue,10/11/2023 21:05:00,MW,8.32723
Torrington Avenue,10/11/2023 21:10:00,MW,8.302551699999999
Torrington Avenue,10/11/2023 21:15:00,MW,8.297479599999999
Torrington Avenue,10/11/2023 21:20:00,MW,8.1309292
Torrington Avenue,10/11/2023 21:25:00,MW,8.163301
Torrington Avenue,10/11/2023 21:30:00,MW,8.1379787
Torrington Avenue,10/11/2023 21:35:00,MW,8.0433965
Torrington Avenue,10/11/2023 21:40:00,MW,7.9411258
Torrington Avenue,10/11/2023 21:45:00,MW,7.8514686000000005
Torrington Avenue,10/11/2023 21:50:00,MW,7.7054443
Torrington Avenue,10/11/2023 21:55:00,MW,7.4501093
Torrington Avenue,10/11/2023 22:00:00,MW,7.6279804
Torrington Avenue,10/11/2023 22:05:00,MW,7.459285700000001
Torrington Avenue,10/11/2023 22:10:00,MW,7.3141205
Torrington Avenue,10/11/2023 22:15:00,MW,7.149376999999999
Torrington Avenue,10/11/2023 22:20:00,MW,7.1584913
Torrington Avenue,10/11/2023 22:25:00,MW,6.9586243
Torrington Avenue,10/11/2023 22:30:00,MW,6.9978113
Torrington Avenue,10/11/2023 22:35:00,MW,7.0170167
Torrington Avenue,10/11/2023 22:40:00,MW,6.9971423999999995
Torrington Avenue,10/11/2023 22:45:00,MW,6.9492352
Torrington Avenue,10/11/2023 22:50:00,MW,6.8129756
Torrington Avenue,10/11/2023 22:55:00,MW,6.9184709
Torrington Avenue,10/11/2023 23:00:00,MW,6.7287469
Torrington Avenue,10/11/2023 23:05:00,MW,6.6462316999999995
Torrington Avenue,10/11/2023 23:10:00,MW,6.4579546
Torrington Avenue,10/11/2023 23:15:00,MW,6.525994799999999
Torrington Avenue,10/11/2023 23:20:00,MW,6.529645
Torrington Avenue,10/11/2023 23:25:00,MW,6.4285245
Torrington Avenue,10/11/2023 23:30:00,MW,6.3987655
Torrington Avenue,10/11/2023 23:35:00,MW,6.3275402
Torrington Avenue,10/11/2023 23:40:00,MW,6.3078503999999995
Torrington Avenue,10/11/2023 23:45:00,MW,6.2342852
Torrington Avenue,10/11/2023 23:50:00,MW,6.127334100000001
Torrington Avenue,10/11/2023 23:55:00,MW,6.0227404
